Regional Weather Roundup
Issued by NWS Newport/Morehead, NC

Current Version | Previous Version | Text Only | Print | Product List | Glossary Off
Versions: 1 2 3 4 5 6 7 8 9 10 11 12 13 14 15 16 17 18 19 20 21 22 23 24 25 26 27 28 29 30 31 32 33 34 35 36 37 38 39 40 41 42 43 44 45 46 47 48 49 50
000 ASUS42 KMHX 302322 RWRMHX WEATHER ROUNDUP FOR EASTERN NORTH CAROLINA NATIONAL WEATHER SERVICE NEWPORT/MOREHEAD CITY NC 600 PM EST FRI JAN 30 2015 NOTE: "FAIR" INDICATES FEW OR NO CLOUDS BELOW 12,000 FEET WITH NO SIGNIFICANT WEATHER AND/OR OBSTRUCTIONS TO VISIBILITY NCZ015>017-031-032-045>047-102-103-310000- NORTH COAST CITY SKY/WX TMP DP RH WIND PRES REMARKS EDENTON CLOUDY 43 24 47 NW7 30.10R ELIZABETH CITY CLOUDY 39 29 67 N7 30.08R KITTY HAWK CLOUDY 38 30 71 NW8 30.06R MANTEO CLOUDY 37 30 75 N12 30.08R $$ NCZ045>047-081-094-103-104-310000- CENTRAL COAST CITY SKY/WX TMP DP RH WIND PRES REMARKS FRISCO PTCLDY 42 29 59 NW7 30.07R SWANQUARTER NOT AVBL $$ NCZ095-097-098-100-101-310000- SOUTHERN COAST CITY SKY/WX TMP DP RH WIND PRES REMARKS BEAUFORT CLEAR 44 24 45 NW14 30.10R CEDAR ISLAND NOT AVBL JACKSONVILLE CLEAR 45 18 34 NW12 30.12R PINEY ISLAND N/A N/A N/A N/A MISG 30.08R WILMINGTON CLEAR 46 19 34 NW13 30.14R $$ NCZ011>013-027>030-043-044-078>080-089-090>093-098-310000- COASTAL PLAIN CITY SKY/WX TMP DP RH WIND PRES REMARKS AHOSKIE CLOUDY 42 14 32 NW8 30.13R CLINTON CLEAR 46 20 35 NW8 30.15R ELIZABETHTOWN CLEAR 47 17 30 NW12 30.16R GOLDSBORO CLEAR 48 21 34 NW16G25 30.06R GREENVILLE CLEAR 43 16 33 NW14G22 30.14R HAVELOCK CLEAR 45 18 34 NW16G22 30.11R KENANSVILLE CLEAR 44 15 30 NW10 30.16R KINSTON CLEAR 45 16 31 NW15G21 30.14R NEW BERN CLEAR 46 18 32 NW9 30.11R RICHLANDS CLEAR 45 18 33 W5 30.14R ROCKY MOUNT CLEAR 42 13 30 NW16G25 30.16R WASHINGTON CLEAR 43 17 35 NW9G17 30.11R WHITEVILLE CLEAR 47 19 31 NW5 30.15R $$ AMZ130-135-150-152-154-156-158-170-250-252-270-ANZ085-086-088-633-658-670-310000- MARINE OBSERVATIONS STATION/POSITION TIME TEMP WIND PRES WAVE SWELL AIR SEA DIR/SP/G HT/PER HT/PER (UTC) (F) (DEG/KT/KT) (MB) (FT/S) (FT/S) CHESAPEAKE LIGHT 2300 38 330/ 36/ 40 1018.1 64 E VA BEACH 2300 41 49 320/ 29/ 35 1015.7 10/ 7 DUCK 2300 38 44 320/ 9/ 12 1017.5 2 E DUCK 2300 44 N/A 5/ 6 10 NE DUCK 2300 45 N/A 6/ 6 OREGON INLET 2300 39 42 330/ 10/ 14 1018.3 13E OREGON INLT 2300 43 N/A 7/ 7 HATTERAS CG 2300 43 46 330/ 12/ 14 1018.5 DIAMOND BUOY 2300 46 68 330/ 17/ 23 1017.5 5/ 8 2/ 8 17 S OCRACOKE NOT AVBL CAPE LOOKOUT 2300 46 310/ 13/ 17 1018.9 BEAUFORT LAB 2300 45 47 320/ 6/ 13 1018.2 27 SE WRIGHTSVLE NOT AVBL 5 SE WRIGHTSVLE 2300 49 52 320/ 16/ 17 1020.2 225 S CAPE HAT 2155 60 71 320/ 27/ 31 1015.6 13/ 9 41 SE CHARLESTON 2300 56 68 320/ 19/ 25 1020.3 5/ 5 2/11 $$

USA.gov is the U.S. government's official web portal to all federal, state and local government web resources and services.